,

(GMT )
Grey Islet

Weather History for CWEK - November, 2012

Change the Weather History Date:

Friday, November 9, 2012

  Actual Average Record
Temperature  
Mean Temperature 39 °F -  
Max Temperature 41 °F - - ()
Min Temperature 37 °F - - ()
Degree Days  
Heating Degree Days 26    
Moisture  
Dew Point 31 °F    
Average Humidity 71    
Maximum Humidity 85    
Minimum Humidity 52    
Precipitation  
Precipitation 0.00 in - - ()
Sea Level Pressure  
Sea Level Pressure 30.10 in    
Wind  
Wind Speed 21 mph ()    
Max Wind Speed 32 mph    
Max Gust Speed 38 mph    
T = Trace of Precipitation, MM = Missing Value Source: Averaged Metar Reports

Daily Weather History Graph

Daily Weather History Graph

Search for Another Location

Airport or City:

Trip Planner

Search our weather history database for the weather conditions in past years. The results will help you decide how hot, cold, wet, or windy it might be!

Date:

Astronomy

Nov. 09, 2012 Rise Set
Actual Time 8:02 AM PST 4:50 PM PST
Civil Twilight 7:23 AM PST 5:29 PM PST
Nautical Twilight 6:39 AM PST 6:12 PM PST
Astronomical Twilight 5:57 AM PST 6:54 PM PST
Moon 2:26 AM PST (11/9) 2:43 PM PST (11/9)
Length of Visible Light 10h 06m
Length of Day
8h 47m
Waning Crescent, 22% of the Moon is Illuminated
Nov 9
Waning Crescent
Nov 13
New
Nov 20
First Quarter
Nov 28
Full
Dec 6
Last Quarter

Hourly Weather History & Observations

Time (PST) Temp. Windchill Dew Point Humidity Pressure Visibility Wind Dir Wind Speed Gust Speed Precip Events Conditions
12:00 AM 39.4 °F 30.1 °F 35.2 °F 85% 30.16 in - North 18.4 mph - N/A   Unknown
1:00 AM 39.6 °F 30.0 °F 34.7 °F 83% 30.15 in - North 19.6 mph - N/A   Unknown
2:00 AM 39.4 °F 29.5 °F 34.0 °F 81% 30.14 in - North 20.7 mph - N/A   Unknown
3:00 AM 38.7 °F 28.8 °F 33.1 °F 80% 30.13 in - North 19.6 mph - N/A   Unknown
4:00 AM 38 °F - 34 °F 79% 30.12 in - North 20.7 mph - -  
4:00 AM 38.1 °F 27.9 °F 33.8 °F 84% 30.12 in - North 20.7 mph - N/A   Unknown
5:00 AM 38.1 °F 27.6 °F 31.3 °F 76% 30.12 in - North 21.9 mph - N/A   Unknown
6:00 AM 38.1 °F 28.1 °F 31.8 °F 78% 30.12 in - NNE 19.6 mph - N/A   Unknown
7:00 AM 38.1 °F 28.4 °F 31.8 °F 78% 30.12 in - North 18.4 mph - N/A   Unknown
8:00 AM 37.6 °F 27.7 °F 30.7 °F 76% 30.12 in - North 18.4 mph - N/A   Unknown
9:00 AM 38.7 °F 28.8 °F 31.6 °F 76% 30.12 in - NNE 19.6 mph 25.3 mph N/A   Unknown
10:00 AM 39 °F - 30 °F 59% 30.11 in - NNE 26.5 mph - -  
10:00 AM 38.8 °F 27.6 °F 29.7 °F 70% 30.11 in - NNE 26.5 mph 33.4 mph N/A   Unknown
11:00 AM 39.4 °F 27.6 °F 29.8 °F 69% 30.10 in - NE 29.9 mph - N/A   Unknown
12:00 PM 39.9 °F 28.6 °F 29.5 °F 66% 30.10 in - NE 28.8 mph - N/A   Unknown
1:00 PM 40.6 °F 29.8 °F 28.8 °F 63% 30.11 in - NE 27.6 mph - N/A   Unknown
2:00 PM 41.2 °F 30.5 °F 28.6 °F 61% 30.10 in - NNE 27.6 mph - N/A   Unknown
3:00 PM 41.4 °F 30.5 °F 30.0 °F 64% 30.08 in - NE 28.8 mph 34.5 mph N/A   Unknown
4:00 PM 41 °F - 29 °F 52% 30.08 in - NE 32.2 mph - -  
4:00 PM 40.6 °F 29.0 °F 29.3 °F 64% 30.08 in - NE 32.2 mph - N/A   Unknown
5:00 PM 40.1 °F 28.8 °F 29.5 °F 66% 30.08 in - NNE 28.8 mph 35.7 mph N/A   Unknown
6:00 PM 39.9 °F 28.2 °F 30.4 °F 69% 30.07 in - NE 31.1 mph - N/A   Unknown
7:00 PM 39.4 °F 27.6 °F 30.7 °F 71% 30.06 in - ENE 29.9 mph 38.0 mph N/A   Unknown
8:00 PM 39.0 °F 27.0 °F 29.5 °F 69% 30.06 in - NE 31.1 mph 38.0 mph N/A   Unknown
9:00 PM 38.8 °F 26.7 °F 29.7 °F 70% 30.06 in - NE 31.1 mph - N/A   Unknown
10:00 PM 39 °F - 31 °F 63% 30.06 in - ENE 28.8 mph - -  
10:00 PM 39.2 °F 27.6 °F 30.7 °F 72% 30.06 in - ENE 28.8 mph - N/A   Unknown
11:00 PM 38.7 °F 26.9 °F 30.2 °F 72% 30.07 in - NE 28.8 mph 34.5 mph N/A   Unknown